RH
90 87 86 79 71 66 72 69 70 73 71 73 75 75 78 85 89 92 93 93 94 96 95 95 94 93 95 94 92 91 91 89 93 96 94 93 88 86 82 77 76 78 86
85 88 89 82 81 76 76 76 75 75 72 71 73 73 73 77 87 88 91 90 94 95 94 95 94 89 94 93 94 91 91 91 91 92 94 94 90 89 87 80 65 62 79
89 92 91 86 83 80 81 77 77 76 72 73 71 71 71 74 80 81 84 88 91 92 92 94 94 94 95 96 94 94 92 86 92 93 96 94 94 93 88 84 78 82 69
92 91 92 93 90 82 81 82 82 78 74 74 71 68 69 71 73 78 81 90 92 91 92 93 93 94 94 94 92 94 91 94 93 94 92 93 94 94 93 88 71 82 85
93 93 92 89 91 93 96 95 94 92 82 73 72 72 76 74 70 78 81 88 92 93 93 93 92 92 88 90 90 95 94 95 95 91 92 94 93 84 76 93 83 88 79
96 96 94 92 94 96 95 96 94 92 93 92 86 77 79 71 80 81 79 84 87 89 93 93 91 89 89 84 82 84 87 93 93 92 92 84 89 85 93 89 87 78 59
97 96 95 95 97 97 97 97 97 96 96 96 93 89 81 73 83 83 83 81 84 87 89 90 89 85 91 92 84 84 83 79 80 84 85 78 85 85 89 89 90 88 81
99 98 97 98 98 98 98 98 98 97 96 93 91 87 85 77 84 86 84 84 87 86 88 89 90 94 94 94 94 93 90 87 85 70 74 77 77 88 85 82 88 90 88
98 98 98 98 98 96 97 96 95 95 95 95 94 95 93 92 89 89 82 84 86 92 90 92 92 94 88 88 93 95 96 96 71 67 70 72 74 79 88 90 83 82 84
95 92 89 89 89 93 92 93 89 89 90 90 94 92 92 93 92 92 84 79 85 86 94 93 86 91 87 85 89 89 90 93 91 90 88 80 79 83 78 74 84 96 98
90 90 90 85 82 80 80 78 82 85 91 92 91 92 92 92 94 92 82 75 76 86 89 95 95 86 86 82 77 79 77 86 79 81 80 85 82 82 89 89 88 93 98
88 88 88 88 83 83 76 78 75 76 77 80 84 90 88 83 87 89 83 76 79 82 88 89 92 86 84 84 77 72 66 74 85 84 84 85 87 87 90 92 91 93 92
87 88 89 89 89 89 90 87 82 78 76 76 79 84 88 93 94 88 85 80 80 83 85 87 85 88 83 81 78 71 67 80 83 89 87 88 90 90 90 93 90 90 89
85 88 91 91 92 91 92 92 92 88 79 80 82 83 84 88 91 97 92 87 85 87 85 87 84 86 84 85 80 74 84 84 84 85 87 88 92 96 96 96 97 98 97
74 82 89 89 92 93 91 92 92 90 85 82 81 80 88 91 88 90 93 95 93 84 88 92 94 93 94 92 94 94 94 94 95 92 91 90 88 92 94 98 97 99 96
77 82 87 90 90 87 89 86 75 76 78 77 76 77 74 68 71 81 88 86 82 78 87 87 88 87 90 90 90 92 92 90 94 95 93 90 89 92 93 98 98 97 97
86 83 81 79 82 82 81 83 81 74 76 79 77 77 70 71 77 81 85 84 82 77 83 84 87 89 90 91 91 89 88 89 94 95 92 93 92 93 90 96 97 97 98
78 76 79 78 79 78 80 79 79 76 79 85 78 75 74 75 77 80 80 83 88 81 89 84 87 91 96 95 94 92 92 94 93 90 92 92 93 93 97 98 97 96 97
86 83 82 84 89 96 94 91 84 80 83 88 89 83 92 96 96 88 78 91 93 95 96 90 91 94 91 92 91 92 92 92 92 90 92 92 93 95 94 94 94 90 93
93 90 90 95 92 88 95 97 98 98 99 99 99 99 98 97 99 99 99 98 99 99 99 99 98 93 91 93 97 97 98 96 92 93 91 93 94 94 94 94 95 97 98
89 93 91 90 92 96 96 97 96 98 98 99 98 98 97 99 99 100 100 100 99 99 97 94 93 92 97 98 99 99 98 94 92 92 93 93 94 96 94 94 96 97 98
89 85 88 90 91 90 91 96 96 97 97 94 91 96 88 98 98 98 99 99 99 98 98 98 98 97 98 99 99 99 98 95 92 93 93 94 95 95 96 96 96 94 96
94 95 93 96 96 88 87 87 88 96 98 98 98 98 98 99 99 98 98 99 99 99 99 99 98 98 98 98 98 98 95 91 89 91 94 95 95 95 94 94 93 96 97
95 95 96 96 94 94 93 94 93 86 88 94 98 96 97 97 98 98 98 98 99 99 99 99 99 98 96 96 94 93 91 91 92 91 90 93 96 93 98 96 96 96 97
93 94 94 97 97 97 97 97 96 95 92 89 93 96 96 96 96 97 97 98 98 97 95 94 93 91 91 91 92 93 92 88 90 91 92 92 93 94 95 94 95 94 96
88 92 94 96 97 97 97 97 97 98 98 97 96 97 97 97 96 96 96 96 96 95 94 96 95 93 93 92 91 90 85 84 87 85 91 93 94 94 93 93 94 95 95
Wind_Speed
14 14 14 15 14 12 10 11 10 10 13 13 13 11 11 10 8 7 7 7 8 7 5 6 7 6 4 4 3 3 3 3 3 0 1 1 1 2 3 4 4 5 4
15 12 12 9 8 10 10 10 11 10 10 12 13 13 12 11 10 9 9 8 8 8 8 6 7 4 6 5 4 4 4 3 4 3 1 1 2 1 1 4 3 3 4
15 15 14 14 13 14 12 10 11 11 11 11 12 14 13 13 13 10 10 9 9 9 8 8 7 7 6 4 4 5 3 2 3 4 2 1 1 2 2 2 3 3 2
12 13 14 15 15 14 13 12 12 13 13 12 12 12 13 13 12 11 10 8 7 6 7 7 7 8 8 7 5 5 5 4 3 3 2 2 1 1 2 2 2 2 1
12 14 16 14 14 13 12 12 12 13 12 11 11 9 9 9 10 13 11 10 9 7 6 6 7 7 11 10 6 6 6 4 4 4 3 2 1 1 1 0 1 1 1
10 11 10 11 11 12 12 12 14 13 11 11 10 10 10 8 13 18 14 11 9 9 8 6 6 9 9 13 11 13 10 7 5 4 3 3 3 3 2 2 1 2 1
8 7 8 9 11 12 11 10 10 12 13 14 14 13 12 10 17 18 17 9 10 9 8 8 6 5 8 7 10 12 11 10 7 6 6 5 5 6 5 3 2 2 2
4 6 7 8 8 7 9 11 9 8 9 10 8 9 9 8 18 18 15 7 6 7 9 9 8 8 8 9 8 7 5 5 6 4 6 6 4 7 5 4 5 2 1
3 2 3 4 5 7 8 8 9 10 9 11 13 14 10 7 16 19 17 9 8 6 7 7 8 9 15 18 11 9 7 4 7 10 10 11 10 10 8 4 2 2 1
1 3 4 4 5 5 4 5 4 5 7 6 9 10 13 11 17 18 14 7 9 7 5 5 14 11 18 19 10 10 9 6 6 5 5 6 6 8 9 2 4 2 2
5 4 3 2 4 5 5 4 5 5 6 6 7 6 8 9 11 20 19 9 8 7 7 6 6 18 18 19 15 10 9 9 10 6 4 4 4 4 3 3 3 3 3
4 4 5 5 4 4 6 4 5 7 7 7 7 5 4 6 12 17 19 14 15 10 9 7 7 17 17 17 14 15 13 14 5 5 4 3 3 3 4 4 4 3 2
4 4 3 4 4 4 5 5 4 5 4 4 5 5 5 4 3 14 18 16 17 7 6 10 15 17 16 14 16 16 15 7 7 5 6 4 3 4 5 3 2 2 2
5 5 5 5 4 4 3 2 4 3 4 4 4 4 4 5 6 5 7 9 13 7 11 9 11 12 13 9 9 9 5 6 7 7 4 3 3 3 3 3 3 2 1
6 5 4 3 4 4 3 3 3 2 3 4 4 5 7 6 8 11 11 8 7 9 8 4 4 6 7 5 4 5 4 5 5 4 3 4 4 4 3 3 2 2 3
7 5 4 4 3 3 2 3 0 4 7 7 8 7 4 5 13 18 17 17 17 20 5 5 6 7 8 7 7 6 5 8 4 4 4 5 5 6 5 3 2 4 4
7 6 4 6 4 4 3 3 2 5 4 3 5 6 6 5 13 16 17 17 19 19 4 6 7 7 6 7 8 7 7 6 5 6 6 6 6 5 7 5 4 4 3
8 15 6 6 6 5 5 4 3 3 3 3 3 6 7 8 3 9 11 12 8 10 3 5 7 6 6 6 7 7 5 4 6 7 6 6 6 5 3 4 4 5 4
9 7 7 6 6 6 5 5 5 4 4 3 3 5 3 3 2 2 7 3 4 5 4 5 5 6 7 9 8 6 5 5 4 6 7 6 6 5 6 5 5 9 8
9 17 13 7 6 5 4 4 3 3 2 2 1 1 1 2 1 2 4 4 4 4 4 5 6 6 6 7 5 6 4 4 7 7 6 6 6 6 6 6 5 5 5
6 7 14 8 7 5 4 4 4 3 3 2 2 1 2 1 1 2 3 3 4 4 4 5 6 7 6 5 5 4 6 7 7 7 7 7 6 6 5 5 4 5 4
5 6 6 6 5 5 5 4 4 3 3 3 2 3 8 3 4 3 3 3 3 4 5 6 5 6 6 5 6 6 7 8 7 7 7 6 6 5 6 5 5 5 4
5 4 3 3 3 5 4 4 4 3 3 3 3 3 2 1 2 2 2 2 2 3 3 5 5 5 6 7 7 7 7 8 8 6 6 6 6 6 6 5 4 4 4
5 5 5 4 4 4 3 4 4 5 4 4 4 3 3 3 3 4 3 3 3 4 4 4 5 7 5 5 5 6 7 6 5 7 8 7 7 8 4 5 5 6 4
4 4 4 4 4 4 4 4 4 4 4 4 4 3 3 4 4 3 3 3 3 4 5 5 5 7 9 10 9 9 10 15 9 8 7 8 8 9 6 5 5 3 5
3 4 4 3 4 4 4 4 4 3 3 4 3 3 3 3 3 4 4 3 4 4 5 4 6 9 8 8 9 12 15 16 14 16 8 6 7 5 5 5 7 4 6
Wind_Direction
198 203 203 203 195 197 195 187 188 175 167 171 177 185 177 175 177 171 175 167 175 171 174 180 184 164 169 161 149 135 142 132 124 196 116 170 45 61 42 45 51 52 23
211 209 208 206 190 194 192 184 162 180 180 174 178 179 182 178 169 174 177 173 180 181 179 178 186 165 172 167 161 174 163 153 129 144 130 111 102 37 39 67 29 77 62
206 201 198 205 198 202 196 195 176 178 176 181 178 185 181 187 169 181 175 179 185 184 180 179 179 165 167 159 168 161 157 132 113 127 147 125 117 20 37 42 41 33 69
192 195 197 197 204 204 197 185 188 187 180 178 190 192 188 182 169 173 172 174 189 183 175 180 174 174 169 166 171 170 152 142 127 112 102 133 126 21 79 77 34 17 342
199 198 202 199 198 200 197 186 182 191 189 175 172 183 187 188 176 172 170 170 172 176 181 183 179 178 176 170 155 164 153 144 141 134 128 123 157 144 148 281 123 316 309
199 209 200 192 190 192 193 186 180 180 172 164 175 179 183 196 194 177 168 168 167 170 176 179 167 161 173 173 172 172 169 156 157 142 149 172 190 151 149 161 154 53 19
198 197 195 186 184 187 162 182 174 182 181 186 183 174 193 188 175 176 169 161 164 169 169 168 158 159 158 153 163 168 178 176 165 155 159 187 168 177 156 155 164 139 223
211 195 180 175 184 181 177 169 176 164 180 185 174 180 174 170 167 169 160 143 151 178 169 174 163 157 159 147 138 140 145 145 155 163 169 172 163 158 161 168 158 161 306
108 102 133 166 154 164 185 175 190 173 167 173 167 158 158 177 181 156 158 152 153 182 170 168 163 158 167 156 147 150 146 151 149 144 146 155 155 166 163 128 142 115 93
143 181 155 147 143 157 160 161 157 147 169 169 165 181 176 160 188 171 161 159 156 176 168 170 176 169 171 167 158 156 157 175 155 125 130 136 111 156 169 165 163 141 143
127 127 124 114 133 141 140 143 143 130 131 145 148 157 164 166 197 179 175 163 172 160 173 170 179 183 183 176 170 167 176 153 168 144 142 141 138 148 148 158 173 138 139
95 107 118 128 135 141 143 121 127 141 145 144 140 137 142 156 181 182 174 174 165 164 182 176 177 185 184 181 177 183 172 159 145 152 158 171 173 179 186 179 174 176 202
83 90 82 79 75 108 126 123 118 126 135 144 156 154 164 141 164 189 179 175 174 170 167 169 172 182 183 183 178 183 176 158 162 170 186 185 183 178 144 146 154 184 230
65 87 98 98 83 53 55 102 121 139 144 155 162 163 155 163 173 173 178 177 179 165 164 168 176 173 179 170 168 179 151 165 177 189 185 160 134 143 164 157 156 160 125
36 47 67 76 104 120 122 160 180 207 174 178 188 173 163 194 206 186 170 171 170 165 138 125 146 159 164 162 153 156 147 166 184 171 166 169 176 170 185 156 161 158 172
32 17 41 62 69 77 97 70 187 212 203 196 180 166 198 184 179 188 188 183 175 162 136 157 166 172 176 173 179 181 176 192 186 173 197 184 187 190 192 175 157 176 183
27 18 29 45 44 52 52 68 53 6 37 223 193 192 174 176 180 189 191 183 174 165 154 164 167 169 176 180 183 190 193 192 160 204 206 201 199 198 200 195 191 186 203
35 40 39 45 41 37 32 31 37 41 52 30 73 94 58 36 166 183 185 169 178 179 139 167 166 163 169 192 191 192 188 153 188 206 206 204 199 195 175 196 191 195 198
34 34 31 39 56 60 49 43 37 38 45 67 51 67 137 149 174 198 198 173 172 182 162 163 169 182 197 191 193 176 182 192 187 210 207 201 200 183 206 195 198 213 217
33 40 42 34 30 27 28 37 41 45 50 62 80 105 38 132 147 173 193 193 184 190 178 175 173 188 193 188 179 184 181 211 222 207 211 203 192 187 199 190 191 197 220
30 25 35 39 35 28 26 25 16 15 7 350 318 282 197 101 147 165 185 179 182 181 177 180 182 186 185 187 176 175 202 217 215 208 200 199 184 190 185 183 186 194 190
28 25 24 25 18 24 27 24 10 357 352 336 324 308 281 263 245 234 215 197 198 193 190 193 195 194 194 188 194 203 210 220 216 207 202 186 175 178 174 174 184 216 218
16 16 13 352 350 5 4 -0 355 345 338 336 334 325 316 293 256 211 231 207 189 185 186 197 207 213 213 209 207 207 214 219 216 193 182 177 179 179 180 164 183 208 221
6 1 356 353 350 7 348 338 330 334 322 309 304 290 280 271 258 253 244 226 217 219 213 209 210 218 208 207 208 212 217 215 183 192 173 171 174 184 154 161 181 201 189
-0 348 342 338 333 330 331 333 326 324 320 308 301 292 287 274 263 250 243 229 223 214 221 216 217 224 225 219 213 211 215 208 188 175 170 167 171 173 166 174 181 189 215
329 323 316 317 319 319 317 315 311 302 299 297 284 279 280 282 270 264 259 250 245 243 239 224 228 232 232 231 225 217 218 220 207 182 162 161 170 170 171 185 200 201 214